Weather History for KBEA - January, 2014

Change the Weather History Date:

Monday, January 6, 2014

  Actual Average (KCRP) Record (KCRP)
Temperature  
Mean Temperature 35 °F 57 °F  
Max Temperature 40 °F 66 °F 85 °F (1994)
Min Temperature 28 °F 47 °F 30 °F (1972)
Degree Days  
Heating Degree Days 30 9  
Month to date heating degree days 54  
Since 1 July heating degree days 405  
Cooling Degree Days 0 1  
Month to date cooling degree days 6  
Year to date cooling degree days 6  
Moisture  
Dew Point 14 °F    
Average Humidity 44    
Maximum Humidity 56    
Minimum Humidity 33    
Precipitation  
Precipitation 0.00 in 0.05 in 1.42 in (1943)
Month to date precipitation 0.32  
Year to date precipitation 0.32  
Snow  
Snow 0.00 in - - ()
Month to date snowfall  
Since 1 July snowfall  
Snow Depth -    
Sea Level Pressure  
Sea Level Pressure 30.61 in    
Wind  
Wind Speed 12 mph (North)    
Max Wind Speed 17 mph    
Max Gust Speed 26 mph    
Visibility 10 miles    
Events      
T = Trace of Precipitation, MM = Missing Value Source: NWS Daily Summary

Daily Weather History Graph

Daily Weather History Graph

Search for Another Location

Airport or City:

Trip Planner

Search our weather history database for the weather conditions in past years. The results will help you decide how hot, cold, wet, or windy it might be!

Date:

Astronomy

Jan. 06, 2014 Rise Set
Actual Time 7:24 AM CST 5:49 PM CST
Civil Twilight 6:58 AM CST 6:15 PM CST
Nautical Twilight 6:29 AM CST 6:44 PM CST
Astronomical Twilight 6:00 AM CST 7:13 PM CST
Moon 11:12 AM CST (1/6) 11:50 PM CST (1/6)
Length of Visible Light 11h 16m
Length of Day
10h 25m
Waxing Crescent, 35% of the Moon is Illuminated
Jan 6
Waxing Crescent
Jan 7
First Quarter
Jan 15
Full
Jan 23
Last Quarter
Jan 30
New

Hourly Weather History & Observations

Time (CST) Temp. Windchill Dew Point Humidity Pressure Visibility Wind Dir Wind Speed Gust Speed Precip Events Conditions
12:15 AM 40.1 °F 32.4 °F 19.9 °F 44% 30.39 in 10.0 mi NNE 13.8 mph 18.4 mph N/A   Clear
12:35 AM 39.4 °F 32.7 °F 20.1 °F 46% 30.40 in 10.0 mi North 10.4 mph 16.1 mph N/A   Clear
12:55 AM 39.0 °F 31.8 °F 20.1 °F 47% 30.40 in 10.0 mi NNE 11.5 mph 16.1 mph N/A   Clear
1:15 AM 39.0 °F 30.6 °F 19.4 °F 45% 30.41 in 10.0 mi North 15.0 mph 23.0 mph N/A   Clear
1:35 AM 38.3 °F 29.7 °F 19.2 °F 46% 30.42 in 10.0 mi NNE 15.0 mph 24.2 mph N/A   Clear
1:55 AM 37.4 °F 30.8 °F 19.4 °F 48% 30.43 in 10.0 mi North 9.2 mph - N/A   Clear
2:15 AM 36.7 °F 28.0 °F 19.6 °F 50% 30.44 in 10.0 mi North 13.8 mph - N/A   Clear
2:35 AM 36.5 °F 28.7 °F 19.8 °F 51% 30.45 in 10.0 mi North 11.5 mph 18.4 mph N/A   Clear
2:55 AM 36.5 °F 29.2 °F 19.8 °F 51% 30.45 in 10.0 mi North 10.4 mph - N/A   Clear
3:15 AM 36.0 °F 28.0 °F 20.1 °F 53% 30.46 in 10.0 mi North 11.5 mph - N/A   Clear
3:35 AM 36.0 °F 26.0 °F 18.7 °F 50% 30.47 in 10.0 mi NNE 17.3 mph 26.5 mph N/A   Clear
3:55 AM 35.8 °F 26.9 °F 18.5 °F 50% 30.48 in 10.0 mi North 13.8 mph 23.0 mph N/A   Clear
4:15 AM 35.2 °F 26.2 °F 19.0 °F 52% 30.49 in 10.0 mi North 13.8 mph 19.6 mph N/A   Clear
4:35 AM 35.1 °F 26.4 °F 18.9 °F 52% 30.49 in 10.0 mi North 12.7 mph 25.3 mph N/A   Clear
4:55 AM 34.7 °F 25.1 °F 19.0 °F 53% 30.50 in 10.0 mi North 15.0 mph 20.7 mph N/A   Clear
5:15 AM 34.3 °F 25.0 °F 19.2 °F 54% 30.51 in 10.0 mi North 13.8 mph - N/A   Clear
5:35 AM 34.0 °F 25.0 °F 19.0 °F 54% 30.52 in 10.0 mi North 12.7 mph 17.3 mph N/A   Clear
5:55 AM 33.4 °F 23.5 °F 19.0 °F 56% 30.53 in 10.0 mi North 15.0 mph - N/A   Clear
6:15 AM 32.9 °F 22.0 °F 17.8 °F 54% 30.54 in 10.0 mi NNE 17.3 mph 26.5 mph N/A   Clear
6:35 AM 32.4 °F 24.0 °F 17.6 °F 55% 30.55 in 10.0 mi North 10.4 mph - N/A   Clear
6:55 AM 32.0 °F 21.2 °F 16.9 °F 54% 30.56 in 10.0 mi NNE 16.1 mph 21.9 mph N/A   Clear
7:15 AM 32.0 °F 22.1 °F 16.7 °F 53% 30.58 in 10.0 mi NNE 13.8 mph 20.7 mph N/A   Clear
7:35 AM 31.6 °F 22.1 °F 17.6 °F 56% 30.60 in 10.0 mi North 12.7 mph 18.4 mph N/A   Clear
7:55 AM 31.1 °F 19.7 °F 17.1 °F 56% 30.61 in 10.0 mi NNE 17.3 mph - N/A   Clear
8:15 AM 30.9 °F 21.2 °F 16.7 °F 56% 30.63 in 10.0 mi NNE 12.7 mph 21.9 mph N/A   Clear
8:35 AM 31.5 °F 20.9 °F 17.1 °F 55% 30.65 in 10.0 mi North 15.0 mph 20.7 mph N/A   Clear
8:55 AM 31.5 °F 21.8 °F 16.7 °F 54% 30.66 in 10.0 mi NNE 12.7 mph - N/A   Clear
9:15 AM 31.8 °F 22.3 °F 16.3 °F 53% 30.67 in 10.0 mi North 12.7 mph 18.4 mph N/A   Clear
9:35 AM 32.0 °F 22.5 °F 16.3 °F 52% 30.69 in 10.0 mi North 12.7 mph 20.7 mph N/A   Clear
9:55 AM 32.0 °F 21.6 °F 14.9 °F 49% 30.70 in 10.0 mi NNE 15.0 mph 21.9 mph N/A   Clear
10:15 AM 32.4 °F 22.5 °F 15.1 °F 49% 30.71 in 10.0 mi North 13.8 mph 18.4 mph N/A   Clear
10:35 AM 32.9 °F 23.2 °F 14.7 °F 47% 30.72 in 10.0 mi NNE 13.8 mph 19.6 mph N/A   Clear
10:55 AM 32.7 °F 22.5 °F 12.9 °F 44% 30.72 in 10.0 mi North 15.0 mph - N/A   Clear
11:15 AM 33.1 °F 24.4 °F 11.8 °F 41% 30.72 in 10.0 mi North 11.5 mph 19.6 mph N/A   Clear
11:35 AM 33.4 °F 24.3 °F 10.8 °F 39% 30.71 in 10.0 mi NNE 12.7 mph 21.9 mph N/A   Clear
11:55 AM 32.9 °F 23.2 °F 10.4 °F 39% 30.71 in 10.0 mi NNE 13.8 mph 19.6 mph N/A   Clear
12:15 PM 33.4 °F 23.9 °F 9.1 °F 36% 30.70 in 10.0 mi NNE 13.8 mph 19.6 mph N/A   Clear
12:35 PM 34.0 °F 24.6 °F 9.3 °F 36% 30.67 in 10.0 mi North 13.8 mph 18.4 mph N/A   Clear
12:55 PM 34.0 °F 23.8 °F 9.1 °F 36% 30.65 in 10.0 mi NNE 16.1 mph 21.9 mph N/A   Clear
1:15 PM 34.0 °F 25.0 °F 9.7 °F 36% 30.64 in 10.0 mi North 12.7 mph 19.6 mph N/A   Clear
1:35 PM 34.3 °F 25.5 °F 9.9 °F 36% 30.64 in 10.0 mi NNE 12.7 mph - N/A   Clear
1:55 PM 34.7 °F 25.5 °F 10.0 °F 36% 30.65 in 10.0 mi North 13.8 mph 19.6 mph N/A   Clear
2:15 PM 34.7 °F 25.5 °F 10.0 °F 36% 30.65 in 10.0 mi North 13.8 mph - N/A   Clear
2:35 PM 34.7 °F 25.9 °F 9.7 °F 35% 30.65 in 10.0 mi North 12.7 mph 19.6 mph N/A   Clear
2:55 PM 34.9 °F 26.2 °F 9.5 °F 35% 30.65 in 10.0 mi North 12.7 mph - N/A   Clear
3:15 PM 35.1 °F 26.4 °F 9.1 °F 34% 30.65 in 10.0 mi North 12.7 mph 17.3 mph N/A   Clear
3:35 PM 35.4 °F 27.3 °F 9.5 °F 34% 30.64 in 10.0 mi North 11.5 mph - N/A   Clear
3:55 PM 35.2 °F 25.8 °F 8.8 °F 33% 30.64 in 10.0 mi North 15.0 mph - N/A   Clear
4:15 PM 34.7 °F 28.1 °F 8.4 °F 33% 30.65 in 10.0 mi NNE 8.1 mph 18.4 mph N/A   Clear
4:35 PM 34.7 °F 27.5 °F 8.4 °F 33% 30.66 in 10.0 mi North 9.2 mph - N/A   Clear
4:55 PM 34.7 °F 25.5 °F 8.1 °F 33% 30.67 in 10.0 mi North 13.8 mph - N/A   Clear
5:15 PM 34.3 °F 27.0 °F 8.1 °F 33% 30.67 in 10.0 mi North 9.2 mph - N/A   Clear
5:35 PM 33.8 °F 26.4 °F 7.7 °F 34% 30.66 in 10.0 mi NNE 9.2 mph - N/A   Clear
5:55 PM 33.4 °F 24.8 °F 7.7 °F 34% 30.65 in 10.0 mi North 11.5 mph - N/A   Clear
6:15 PM 33.1 °F 24.9 °F 7.9 °F 35% 30.65 in 10.0 mi North 10.4 mph - N/A   Clear
6:35 PM 32.9 °F 28.5 °F 7.7 °F 35% 30.66 in 10.0 mi NNE 4.6 mph - N/A   Clear
6:55 PM 32.5 °F 28.1 °F 8.2 °F 36% 30.66 in 10.0 mi NNE 4.6 mph - N/A   Clear
7:15 PM 32.2 °F - 8.4 °F 37% 30.67 in 10.0 mi Calm Calm - N/A   Clear
7:35 PM 32.0 °F 28.7 °F 8.6 °F 38% 30.68 in 10.0 mi North 3.5 mph - N/A   Clear
7:55 PM 32.0 °F 26.4 °F 9.5 °F 39% 30.68 in 10.0 mi North 5.8 mph - N/A   Clear
8:15 PM 32.0 °F 27.5 °F 10.4 °F 41% 30.67 in 10.0 mi NNE 4.6 mph - N/A   Clear
8:35 PM 31.5 °F - 10.8 °F 42% 30.69 in 10.0 mi Calm Calm - N/A   Clear
8:55 PM 31.8 °F 28.5 °F 10.2 °F 41% 30.70 in 10.0 mi NNW 3.5 mph - N/A   Clear
9:15 PM 31.5 °F - 10.4 °F 42% 30.71 in 10.0 mi Calm Calm - N/A   Clear
9:35 PM 31.1 °F 27.7 °F 11.8 °F 45% 30.70 in 10.0 mi North 3.5 mph - N/A   Clear
9:55 PM 31.5 °F - 11.3 °F 43% 30.70 in 10.0 mi Calm Calm - N/A   Clear
10:15 PM 31.1 °F 26.4 °F 12.0 °F 45% 30.68 in 10.0 mi NNE 4.6 mph - N/A   Clear
10:35 PM 30.7 °F 24.1 °F 11.8 °F 46% 30.68 in 10.0 mi North 6.9 mph - N/A   Clear
10:55 PM 30.2 °F 24.3 °F 12.0 °F 47% 30.67 in 10.0 mi North 5.8 mph - N/A   Clear
11:15 PM 30.0 °F - 11.3 °F 46% 30.68 in 10.0 mi Calm Calm - N/A   Clear
11:35 PM 30.0 °F - 11.3 °F 46% 30.67 in 10.0 mi Calm Calm - N/A   Clear
11:55 PM 28.6 °F - 12.4 °F 51% 30.67 in 10.0 mi Calm Calm - N/A   Clear